Regional Weather Roundup
Issued by NWS

Home | Current Version | Previous Version | Text Only | Print | Product List | Glossary Off
Versions: 1 2 3 4 5 6 7 8 9 10 11 12 13 14 15 16 17 18 19 20 21 22 23 24 25 26 27 28 29 30 31 32 33 34 35 36 37 38 39 40 41 42 43 44 45 46 47 48 49 50

000
ASUS45 KABQ 010910
RWRNM
NEW MEXICO REGIONAL WEATHER ROUNDUP
NATIONAL WEATHER SERVICE ALBUQUERQUE NM
300 AM MDT SAT AUG 01 2015

NOTE: "FAIR" MEANS FEW OR NO CLOUDS BELOW 12,000 FEET AGL WITH NO
       SIGNIFICANT WEATHER OR OBSTRUCTIONS TO VISION.

      THIS PRODUCT IS RELEASED AS TWO VERSIONS.  ONE VERSION NEAR
      THE TOP OF THE HOUR CONTAINING PRELIMINARY DATA FROM ALBUQUERQUE
      AND OTHER STATIONS.  A FINAL VERSION WITH ADDITIONAL DATA IS
      ISSUED ABOUT 10 MINUTES AFTER THE HOUR.

NMZ501-503-504-510>518-011000-
NORTHWEST PLATEAU/NORTHCENTRAL MOUNTAINS

CITY           SKY/WX    TMP DP  RH WIND       PRES   REMARKS
FARMINGTON     CLOUDY    67  59  75 E7        30.27F
LOS ALAMOS     CLOUDY    62  54  75 CALM      30.42S
SANTA FE       CLOUDY    63  58  83 CALM      30.36S
TAOS           CLOUDY    57  48  72 CALM      30.42S
ANGEL FIRE     CLOUDY    52  51  95 CALM      30.49F

$$
NMZ402-403-502-505>509-011000-
WESTCENTRAL MOUNTAINS/SOUTHWEST MOUNTAINS

CITY           SKY/WX    TMP DP  RH WIND       PRES   REMARKS
GALLUP         CLOUDY    61  58  90 CALM      30.34F
GRANTS         MOCLDY    60  58  93 CALM      30.37S
SILVER CITY      N/A     66  57  72 N7        30.26F

$$
NMZ407-409-411-412-011000-
SOUTHERN DESERTS

CITY           SKY/WX    TMP DP  RH WIND       PRES   REMARKS
LORDSBURG      FAIR      68  61  77 NW8       30.16F
DEMING         MOCLDY    75  59  57 NE13G21   30.16F
LAS CRUCES     PTCLDY    73  57  58 N8        30.18F
HOLLOMAN AFB   PTCLDY    73  58  60 N14       30.15F
ALAMOGORDO     PTCLDY    73  55  53 N15       30.17F
T OR C         LGT RAIN  64  62  93 N16G23    30.25F

$$
NMZ519>523-011000-
CENTRAL VALLEYS/CENTRAL HIGHLANDS

CITY           SKY/WX    TMP DP  RH WIND       PRES   REMARKS
ALBUQUERQUE    MOCLDY    68  58  70 S5        30.31S
DOUBLE EAGLE   CLOUDY    63  60  90 SE5       30.33F
MORIARTY ARPT    N/A     62  57  85 CALM      30.37S
CLINES CORNERS CLOUDY    60  54  80 SW13      30.39F
BELEN          FAIR      66  61  82 CALM      30.29F
SOCORRO        CLOUDY    66  61  85 SW12      30.28S

$$
NMZ524>526-539-540-011000-
SOUTHCENTRAL MOUNTAINS

CITY           SKY/WX    TMP DP  RH WIND       PRES   REMARKS
RUIDOSO          N/A    N/A N/A N/A MISG        N/A

$$
NMZ527>531-011000-
NORTHEAST HIGHLANDS/NORTHEAST PLAINS

CITY           SKY/WX    TMP DP  RH WIND       PRES   REMARKS
LAS VEGAS      CLOUDY    60  58  92 S6        30.37F
RATON          CLOUDY    62  60  93 CALM      30.32F
CLAYTON        CLOUDY    65  64  97 SW9       30.25F

$$
NMZ532>537-011000-
EASTCENTRAL PLAINS

CITY           SKY/WX    TMP DP  RH WIND       PRES   REMARKS
TUCUMCARI      CLOUDY    70  66  87 S5        30.22F
CANNON AFB     CLOUDY    68  66  93 E8        30.23F
CLOVIS AIRPORT CLOUDY    68  64  88 E6        30.24F

$$
NMZ028-029-538-011000-
SOUTHEAST PLAINS

CITY           SKY/WX    TMP DP  RH WIND       PRES   REMARKS
ROSWELL        MOCLDY    77  63  61 NE5       30.17F
ARTESIA        MOCLDY    79  64  61 NE5G12    30.15F
CARLSBAD       CLEAR     76  56  49 E7        30.11F
HOBBS          CLEAR     72  64  78 SE6       30.15F


$$



USA.gov is the U.S. government's official web portal to all federal, state and local government web resources and services.